| time (UTC) | temp F | wind direction | speed MPH | gust MPH | rain 1hr in | rain 24hr in | rain mn in | humidity % | barometer mb |
| 20260510085515 | 52 | 307 | 0.0 | 2.0 | 0.00 | 0.00 | 0.00 | 100 | 1010.9 |
| 20260510084515 | 52 | 0.0 | 0.0 | 0.00 | 0.00 | 0.00 | 100 | 1010.9 | |
| 20260510083535 | 52 | 288 | 0.0 | 3.0 | 0.00 | 0.00 | 0.00 | 100 | 1010.4 |
| 20260510082515 | 52 | 317 | 1.0 | 5.0 | 0.00 | 0.00 | 0.00 | 100 | 1010.9 |
| 20260510081515 | 51 | 290 | 2.0 | 6.0 | 0.00 | 0.00 | 0.00 | 100 | 1010.9 |
| 20260510080515 | 52 | 0.0 | 0.0 | 0.00 | 0.00 | 0.00 | 100 | 1010.4 | |
| 20260510075636 | 52 | 0.0 | 0.0 | 0.00 | 0.00 | 0.00 | 100 | 1010.3 | |
| 20260510074515 | 52 | 0.0 | 0.0 | 0.00 | 0.00 | 0.00 | 100 | 1010.2 | |
| 20260510073536 | 52 | 0.0 | 0.0 | 0.00 | 0.00 | 0.00 | 100 | 1010.1 | |
| 20260510072515 | 52 | 0.0 | 0.0 | 0.00 | 0.00 | 0.00 | 100 | 1010.0 | |
| 20260510071516 | 52 | 0.0 | 0.0 | 0.00 | 0.00 | 0.00 | 100 | 1009.9 | |
| 20260510070515 | 52 | 0.0 | 0.0 | 0.00 | 0.00 | 0.00 | 100 | 1009.8 | |
| 20260510065535 | 52 | 306 | 0.0 | 2.0 | 0.00 | 0.00 | 0.00 | 100 | 1009.7 |
| 20260510064515 | 52 | 0.0 | 0.0 | 0.00 | 0.00 | 0.00 | 100 | 1009.5 | |
| 20260510063515 | 52 | 0.0 | 0.0 | 0.00 | 0.00 | 0.00 | 100 | 1009.5 | |
| 20260510062515 | 53 | 0.0 | 0.0 | 0.00 | 0.00 | 0.00 | 100 | 1009.6 | |
| 20260510061515 | 53 | 0.0 | 0.0 | 0.00 | 0.00 | 0.00 | 100 | 1009.5 | |
| 20260510060515 | 53 | 0.0 | 0.0 | 0.00 | 0.00 | 0.00 | 100 | 1009.7 | |
| 20260510055535 | 53 | 0.0 | 0.0 | 0.00 | 0.00 | 0.00 | 100 | 1009.8 | |
| 20260510054515 | 53 | 0.0 | 0.0 | 0.00 | 0.00 | 0.00 | 100 | 1009.9 | |
| 20260510053515 | 54 | 0.0 | 0.0 | 0.00 | 0.00 | 0.00 | 100 | 1009.6 | |
| 20260510052535 | 54 | 0.0 | 0.0 | 0.00 | 0.00 | 0.00 | 100 | 1009.7 | |
| 20260510051536 | 54 | 0.0 | 0.0 | 0.00 | 0.00 | 0.00 | 99 | 1009.7 | |
| 20260510050535 | 54 | 0.0 | 0.0 | 0.00 | 0.00 | 0.00 | 99 | 1009.9 | |
| 20260510045536 | 54 | 0.0 | 0.0 | 0.00 | 0.00 | 0.00 | 99 | 1010.1 | |
| 20260510044515 | 54 | 0.0 | 0.0 | 0.00 | 0.00 | 0.00 | 99 | 1010.1 | |
| 20260510043515 | 55 | 0.0 | 0.0 | 0.00 | 0.00 | 0.00 | 99 | 1010.0 | |
| 20260510042515 | 55 | 0.0 | 0.0 | 0.00 | 0.00 | 0.00 | 99 | 1009.8 | |
| 20260510041536 | 55 | 0.0 | 0.0 | 0.00 | 0.00 | 0.00 | 99 | 1009.9 | |
| 20260510040535 | 55 | 0.0 | 0.0 | 0.00 | 0.00 | 0.00 | 99 | 1009.9 | |
| 20260510035515 | 55 | 0.0 | 0.0 | 0.00 | 0.00 | 0.00 | 99 | 1009.9 | |
| 20260510034516 | 55 | 0.0 | 0.0 | 0.00 | 0.00 | 0.00 | 99 | 1010.0 | |
| 20260510033535 | 55 | 0.0 | 0.0 | 0.00 | 0.00 | 0.00 | 99 | 1009.9 | |
| 20260510032515 | 55 | 0.0 | 0.0 | 0.00 | 0.00 | 0.00 | 99 | 1009.9 | |
| 20260510031515 | 56 | 0.0 | 0.0 | 0.00 | 0.00 | 0.00 | 98 | 1009.9 | |
| 20260510030515 | 56 | 291 | 0.0 | 2.0 | 0.00 | 0.00 | 0.00 | 98 | 1009.9 |
| 20260510025515 | 56 | 0.0 | 0.0 | 0.00 | 0.00 | 0.00 | 98 | 1009.9 | |
| 20260510024515 | 56 | 0.0 | 0.0 | 0.00 | 0.00 | 0.00 | 98 | 1009.8 | |
| 20260510023515 | 57 | 0.0 | 0.0 | 0.00 | 0.00 | 0.00 | 97 | 1009.8 | |
| 20260510022515 | 57 | 0.0 | 0.0 | 0.00 | 0.00 | 0.00 | 96 | 1009.8 | |
| 20260510021515 | 57 | 0.0 | 0.0 | 0.00 | 0.00 | 0.00 | 96 | 1009.9 | |
| 20260510020536 | 57 | 0.0 | 0.0 | 0.00 | 0.00 | 0.00 | 96 | 1009.8 | |
| 20260510015535 | 58 | 0.0 | 0.0 | 0.00 | 0.00 | 0.00 | 93 | 1009.8 | |
| 20260510014515 | 58 | 0.0 | 0.0 | 0.00 | 0.00 | 0.00 | 92 | 1009.6 | |
| 20260510013556 | 59 | 0.0 | 0.0 | 0.00 | 0.00 | 0.00 | 92 | 1009.5 | |
| 20260510012515 | 59 | 0.0 | 0.0 | 0.00 | 0.00 | 0.00 | 90 | 1009.3 | |
| 20260510011515 | 59 | 0.0 | 0.0 | 0.00 | 0.00 | 0.00 | 89 | 1009.2 | |
| 20260510010515 | 59 | 0.0 | 0.0 | 0.00 | 0.00 | 0.00 | 88 | 1009.0 | |
| 20260510005516 | 59 | 0.0 | 0.0 | 0.00 | 0.00 | 0.00 | 89 | 1009.0 | |
| 20260510004515 | 60 | 0.0 | 0.0 | 0.00 | 0.00 | 0.00 | 88 | 1008.9 | |
| 20260510003515 | 61 | 0.0 | 0.0 | 0.00 | 0.00 | 0.00 | 85 | 1008.7 | |
| 20260510002515 | 61 | 0.0 | 0.0 | 0.00 | 0.00 | 0.00 | 84 | 1008.8 | |
| 20260510001516 | 62 | 0.0 | 0.0 | 0.00 | 0.00 | 0.00 | 83 | 1008.8 | |
| 20260510000515 | 62 | 0.0 | 0.0 | 0.00 | 0.00 | 0.00 | 82 | 1008.7 | |
| 20260509235515 | 63 | 0.0 | 0.0 | 0.00 | 0.00 | 0.00 | 81 | 1008.7 | |
| 20260509234515 | 63 | 16 | 0.0 | 0.0 | 0.00 | 0.00 | 0.00 | 79 | 1008.7 |
| 20260509233516 | 64 | 4 | 0.0 | 1.0 | 0.00 | 0.00 | 0.00 | 78 | 1008.6 |
| 20260509232535 | 64 | 0.0 | 0.0 | 0.00 | 0.00 | 0.00 | 77 | 1008.5 | |
| 20260509231515 | 65 | 356 | 0.0 | 2.0 | 0.00 | 0.00 | 0.00 | 76 | 1008.5 |
| 20260509230516 | 65 | 30 | 1.0 | 3.0 | 0.00 | 0.00 | 0.00 | 75 | 1008.5 |
| 20260509225536 | 65 | 13 | 0.0 | 1.0 | 0.00 | 0.00 | 0.00 | 74 | 1008.4 |
| 20260509224515 | 66 | 52 | 0.0 | 2.0 | 0.00 | 0.00 | 0.00 | 72 | 1008.4 |
| 20260509223516 | 66 | 79 | 2.0 | 6.0 | 0.00 | 0.00 | 0.00 | 70 | 1008.3 |
| 20260509222515 | 67 | 357 | 2.0 | 6.0 | 0.00 | 0.00 | 0.00 | 69 | 1008.4 |
| 20260509221515 | 67 | 54 | 0.0 | 2.0 | 0.00 | 0.00 | 0.00 | 68 | 1008.5 |
| 20260509220515 | 66 | 52 | 2.0 | 4.0 | 0.00 | 0.00 | 0.00 | 70 | 1008.6 |
| 20260509215515 | 67 | 21 | 2.0 | 5.0 | 0.00 | 0.00 | 0.00 | 70 | 1008.7 |
| 20260509214516 | 67 | 53 | 2.0 | 6.0 | 0.00 | 0.00 | 0.00 | 70 | 1008.6 |
| 20260509213515 | 68 | 355 | 2.0 | 6.0 | 0.00 | 0.00 | 0.00 | 68 | 1008.6 |
| 20260509212515 | 68 | 19 | 2.0 | 3.0 | 0.00 | 0.00 | 0.00 | 69 | 1008.5 |
| 20260509211515 | 68 | 31 | 1.0 | 4.0 | 0.00 | 0.00 | 0.00 | 68 | 1008.5 |
| 20260509210515 | 68 | 36 | 2.0 | 5.0 | 0.00 | 0.00 | 0.00 | 68 | 1008.4 |
| 20260509205515 | 68 | 24 | 1.0 | 4.0 | 0.00 | 0.00 | 0.00 | 70 | 1008.4 |
| 20260509204535 | 67 | 64 | 2.0 | 5.0 | 0.00 | 0.00 | 0.00 | 70 | 1008.3 |
| 20260509203515 | 67 | 34 | 0.0 | 2.0 | 0.00 | 0.00 | 0.00 | 68 | 1008.4 |
| 20260509202535 | 69 | 18 | 2.0 | 5.0 | 0.00 | 0.00 | 0.00 | 66 | 1008.6 |
| 20260509201515 | 69 | 53 | 1.0 | 3.0 | 0.00 | 0.00 | 0.00 | 66 | 1008.7 |
| 20260509200536 | 70 | 98 | 0.0 | 2.0 | 0.00 | 0.00 | 0.00 | 65 | 1008.8 |
| 20260509195555 | 69 | 45 | 0.0 | 1.0 | 0.00 | 0.00 | 0.00 | 66 | 1008.8 |
| 20260509194515 | 70 | 22 | 2.0 | 3.0 | 0.00 | 0.00 | 0.00 | 62 | 1008.8 |
| 20260509193515 | 69 | 48 | 3.0 | 6.0 | 0.00 | 0.00 | 0.00 | 66 | 1009.1 |
| 20260509192515 | 67 | 49 | 2.0 | 5.0 | 0.00 | 0.00 | 0.00 | 71 | 1009.0 |
| 20260509191515 | 67 | 337 | 1.0 | 6.0 | 0.00 | 0.00 | 0.00 | 73 | 1009.1 |
| 20260509190515 | 67 | 19 | 3.0 | 6.0 | 0.00 | 0.00 | 0.00 | 73 | 1009.2 |
| 20260509185536 | 67 | 35 | 2.0 | 4.0 | 0.00 | 0.00 | 0.00 | 78 | 1009.3 |
| 20260509184536 | 65 | 11 | 1.0 | 3.0 | 0.00 | 0.00 | 0.00 | 86 | 1009.5 |
| 20260509183516 | 64 | 0.0 | 0.0 | 0.00 | 0.00 | 0.00 | 89 | 1009.8 | |
| 20260509182535 | 64 | 0.0 | 0.0 | 0.00 | 0.00 | 0.00 | 89 | 1009.9 | |
| 20260509181515 | 64 | 0.0 | 0.0 | 0.00 | 0.00 | 0.00 | 88 | 1009.9 | |
| 20260509180516 | 64 | 0.0 | 0.0 | 0.00 | 0.00 | 0.00 | 85 | 1010.1 | |
| 20260509175515 | 65 | 0.0 | 0.0 | 0.00 | 0.00 | 0.00 | 76 | 1010.1 | |
| 20260509174515 | 66 | 0.0 | 0.0 | 0.00 | 0.00 | 0.00 | 68 | 1010.2 | |
| 20260509173515 | 67 | 0.0 | 0.0 | 0.00 | 0.00 | 0.00 | 63 | 1010.1 | |
| 20260509172515 | 68 | 303 | 0.0 | 2.0 | 0.00 | 0.00 | 0.00 | 62 | 1010.3 |
| 20260509171515 | 69 | 322 | 0.0 | 3.0 | 0.00 | 0.00 | 0.00 | 59 | 1010.2 |
| 20260509170515 | 70 | 179 | 1.0 | 3.0 | 0.00 | 0.00 | 0.00 | 61 | 1010.2 |
| 20260509165536 | 70 | 162 | 1.0 | 6.0 | 0.00 | 0.00 | 0.00 | 62 | 1010.3 |
| 20260509164515 | 68 | 193 | 2.0 | 5.0 | 0.00 | 0.00 | 0.00 | 64 | 1010.3 |
| 20260509163515 | 67 | 103 | 1.0 | 4.0 | 0.00 | 0.00 | 0.00 | 69 | 1010.4 |
| 20260509162515 | 67 | 124 | 1.0 | 2.0 | 0.00 | 0.00 | 0.00 | 69 | 1010.5 |
| 20260509161515 | 67 | 0.0 | 0.0 | 0.00 | 0.00 | 0.00 | 65 | 1010.5 | |
| 20260509160515 | 67 | 201 | 1.0 | 4.0 | 0.00 | 0.00 | 0.00 | 65 | 1010.4 |
| 20260509155515 | 66 | 61 | 0.0 | 3.0 | 0.00 | 0.00 | 0.00 | 67 | 1010.3 |
| 20260509154515 | 67 | 95 | 1.0 | 3.0 | 0.00 | 0.00 | 0.00 | 64 | 1010.5 |
| 20260509153515 | 67 | 186 | 0.0 | 4.0 | 0.00 | 0.00 | 0.00 | 63 | 1010.6 |
| 20260509152515 | 66 | 177 | 2.0 | 7.0 | 0.00 | 0.00 | 0.00 | 63 | 1010.8 |
| 20260509151516 | 66 | 189 | 1.0 | 7.0 | 0.00 | 0.00 | 0.00 | 64 | 1011.0 |
| 20260509150515 | 65 | 186 | 2.0 | 7.0 | 0.00 | 0.00 | 0.00 | 65 | 1011.1 |
| 20260509145515 | 66 | 187 | 1.0 | 4.0 | 0.00 | 0.00 | 0.00 | 64 | 1011.2 |
| 20260509144516 | 66 | 201 | 0.0 | 4.0 | 0.00 | 0.00 | 0.00 | 65 | 1011.2 |
| 20260509143515 | 65 | 170 | 2.0 | 8.0 | 0.00 | 0.00 | 0.00 | 69 | 1011.1 |
| 20260509142556 | 65 | 194 | 2.0 | 9.0 | 0.00 | 0.00 | 0.00 | 72 | 1011.1 |
| 20260509141515 | 65 | 171 | 2.0 | 6.0 | 0.00 | 0.00 | 0.00 | 75 | 1011.1 |
| 20260509140535 | 65 | 186 | 1.0 | 4.0 | 0.00 | 0.00 | 0.00 | 76 | 1011.0 |
| 20260509135515 | 65 | 194 | 1.0 | 7.0 | 0.00 | 0.00 | 0.00 | 78 | 1011.0 |
| 20260509134515 | 64 | 160 | 4.0 | 9.0 | 0.00 | 0.00 | 0.00 | 78 | 1011.0 |
| 20260509133515 | 64 | 178 | 3.0 | 10.0 | 0.00 | 0.00 | 0.00 | 79 | 1011.0 |
| 20260509132515 | 64 | 188 | 3.0 | 8.0 | 0.00 | 0.00 | 0.00 | 77 | 1010.9 |
| 20260509131515 | 63 | 158 | 2.0 | 9.0 | 0.00 | 0.00 | 0.00 | 81 | 1011.0 |
| 20260509130515 | 62 | 178 | 3.0 | 7.0 | 0.00 | 0.00 | 0.00 | 83 | 1011.1 |
| 20260509125535 | 62 | 192 | 4.0 | 12.0 | 0.00 | 0.00 | 0.00 | 84 | 1011.1 |
| 20260509124516 | 62 | 184 | 4.0 | 9.0 | 0.00 | 0.00 | 0.00 | 83 | 1011.1 |
| 20260509123515 | 61 | 182 | 4.0 | 9.0 | 0.00 | 0.00 | 0.00 | 83 | 1011.1 |
| 20260509122515 | 61 | 168 | 3.0 | 11.0 | 0.00 | 0.00 | 0.00 | 83 | 1011.0 |
| 20260509121515 | 61 | 185 | 3.0 | 9.0 | 0.00 | 0.00 | 0.00 | 83 | 1011.1 |
| 20260509120515 | 61 | 195 | 4.0 | 11.0 | 0.00 | 0.00 | 0.00 | 83 | 1011.2 |
| 20260509115536 | 61 | 177 | 4.0 | 12.0 | 0.00 | 0.00 | 0.00 | 83 | 1011.1 |
| 20260509114515 | 61 | 195 | 3.0 | 14.0 | 0.00 | 0.00 | 0.00 | 83 | 1011.1 |
| 20260509113515 | 60 | 184 | 4.0 | 9.0 | 0.00 | 0.00 | 0.00 | 83 | 1011.1 |
| 20260509112536 | 60 | 178 | 4.0 | 11.0 | 0.00 | 0.00 | 0.00 | 83 | 1010.9 |
| 20260509111515 | 60 | 181 | 3.0 | 7.0 | 0.00 | 0.00 | 0.00 | 83 | 1010.8 |
| 20260509110515 | 60 | 174 | 2.0 | 9.0 | 0.00 | 0.00 | 0.00 | 84 | 1010.8 |
| 20260509105515 | 60 | 180 | 4.0 | 10.0 | 0.00 | 0.00 | 0.00 | 84 | 1010.8 |
| 20260509104536 | 60 | 178 | 1.0 | 5.0 | 0.00 | 0.00 | 0.00 | 84 | 1010.8 |
| 20260509103535 | 59 | 196 | 1.0 | 6.0 | 0.00 | 0.00 | 0.00 | 83 | 1010.7 |
| 20260509102516 | 59 | 197 | 1.0 | 5.0 | 0.00 | 0.00 | 0.00 | 82 | 1010.5 |
| 20260509101515 | 59 | 184 | 2.0 | 8.0 | 0.00 | 0.00 | 0.00 | 83 | 1010.6 |
| 20260509100535 | 59 | 169 | 1.0 | 4.0 | 0.00 | 0.00 | 0.00 | 81 | 1010.5 |
| 20260509095515 | 59 | 0.0 | 0.0 | 0.00 | 0.00 | 0.00 | 82 | 1010.4 | |
| 20260509094515 | 58 | 162 | 1.0 | 7.0 | 0.00 | 0.00 | 0.00 | 83 | 1010.4 |
| 20260509093515 | 58 | 0.0 | 0.0 | 0.00 | 0.00 | 0.00 | 82 | 1010.4 | |
| 20260509092515 | 58 | 0.0 | 0.0 | 0.00 | 0.00 | 0.00 | 79 | 1010.5 | |
| 20260509091515 | 58 | 189 | 0.0 | 3.0 | 0.00 | 0.00 | 0.00 | 76 | 1010.4 |
| 20260509090516 | 59 | 136 | 0.0 | 1.0 | 0.00 | 0.00 | 0.00 | 74 | 1010.6 |